Home   Weather   Cape Coral   Past weeks

Flag for USA Past Weather in Cape Coral, Florida, USA — Yesterday and Last 2 Weeks

Now
84 °F

Sunny.


Feels Like: 95 °F
Forecast: 78 / 91 °F
Wind: 3 mph from South

Location: Page Field

Current Time: Aug 18, 2017 at 10:39:15 am

Latest Report: Aug 18, 2017 at 9:53 am


Visibility: 10 mi

Pressure: 30.04 "Hg

Humidity: 83%

Dew Point: 78 °F

Location of Cape CoralLocation

Past Weather in Cape Coral — Graph

°F

Cape Coral Temperature Yesterday

Maximum temperature yesterday: 93 °F (at 2:53 pm)
Minimum temperature yesterday: 76 °F (at 6:12 pm)
Average temperature yesterday: 82 °F

High & Low Weather Summary for the Past Weeks

 TemperatureHumidityPressure
High95 °F (Aug 6, 2:53 pm)100% (Aug 5, 6:53 am)30.16 "Hg (Aug 5, 6:53 am)
Low76 °F (Aug 10, 7:36 pm)49% (Aug 9, 2:53 pm)29.94 "Hg (Aug 8, 4:53 pm)
Average84 °F82%30.03 "Hg
* Reported Aug 3 8:53 am — Aug 18 8:53 am, Cape Coral. Weather by CustomWeather, © 2017

Note: Actual official high and low records may vary slightly from our data, if they occured in-between our weather recording intervals... More about our weather records

Advertising

Cape Coral Weather History for the Previous 24 Hours

Scroll right to see more
 ConditionsComfort  
Time TempWeatherWind HumidityBarometerVisibility
8:53 am
Fri, Aug 18
79 °FSunny.3 mph94%30.02 "Hg10 mi
7:53 am78 °FSunny.No wind96%30.02 "Hg10 mi
6:53 am76 °FPassing clouds.3 mph100%30.00 "Hg10 mi
5:53 am77 °FClear.No wind96%30.01 "Hg10 mi
4:53 am77 °FClear.3 mph96%29.99 "Hg10 mi
3:53 am77 °FClear.6 mph96%29.99 "Hg10 mi
2:53 am78 °FClear.No wind93%30.00 "Hg10 mi
1:53 am77 °FClear.No wind100%30.03 "Hg10 mi
12:53 am78 °FClear.No wind96%30.05 "Hg10 mi
11:53 pm
Thu, Aug 17
78 °FClear.No wind96%30.05 "Hg10 mi
10:53 pm78 °FClear.5 mph96%30.07 "Hg10 mi
9:53 pm78 °FLight rain. Passing clouds.3 mph96%30.08 "Hg10 mi
8:53 pm79 °FPassing clouds.6 mph90%30.06 "Hg10 mi
7:53 pm79 °FPassing clouds.3 mph94%30.05 "Hg10 mi
7:29 pm78 °FScattered clouds.6 mph96%30.01 "Hg10 mi
6:53 pm78 °FThundershowers. Broken clouds.6 mph96%30.03 "Hg10 mi
6:38 pm77 °FThundershowers. Fog.12 mph100%30.02 "Hg3 mi
6:12 pm76 °FStrong thunderstorms. Fog.8 mph100%30.04 "Hg1 mi
5:53 pm77 °FStrong thunderstorms. Fog.7 mph94%30.05 "Hg1 mi
5:35 pm80 °FStrong thunderstorms. Fog.15 mph94%30.00 "Hg2 mi
5:09 pm88 °FThunderstorms. Broken clouds.9 mph67%30.00 "Hg10 mi
5:00 pm90 °FThundershowers. Scattered clouds.13 mph66%29.99 "Hg10 mi
3:53 pm93 °FPartly sunny.No wind52%30.01 "Hg10 mi
2:53 pm93 °FScattered clouds.5 mph54%30.03 "Hg10 mi
1:53 pm92 °FScattered clouds.No wind58%30.06 "Hg10 mi
12:53 pm90 °FScattered clouds.6 mph63%30.07 "Hg10 mi
11:53 am91 °FPassing clouds.3 mph60%30.08 "Hg10 mi
10:53 am88 °FSunny.No wind73%30.09 "Hg10 mi
Weather by CustomWeather, © 2017

See weather overviewHow to use our weather pages